User: anonymous   Login
Location: Fort Wayne
(41.1310°N, 85.1290°W)
Time: 07:10:51
(UTC-05:00)
Language:

Meteor 2-10 Rocket - Orbit

View from above orbital plane
View from above orbital plane
View from above satellite
View from above satellite

Ground track
Ground track

The orbit data is extracted from the following two-line orbital elements,

1 14453U 83109B   14352.22200253  .00000133  00000-0  48890-4 0  3061
2 14453 081.1680 303.6616 0105190 181.1649 298.0439 14.24549711617685
Epoch (UTC): 18 December 2014 05:19:41
Eccentricity: 0.0105190
inclination: 81.1680°
perigee height: 734 km
apogee height: 885 km
right ascension of ascending node: 303.6616°
argument of perigee: 181.1649°
revolutions per day: 14.24549711
mean anomaly at epoch: 298.0439°
orbit number at epoch: 61768

The dashed part of the orbit path shows where the satellite is in the earth's shadow,  

DLR